TimeEDT,TemperatureF,Dew PointF,Humidity,Sea Level PressureIn,VisibilityMPH,Wind Direction,Wind SpeedMPH,Gust SpeedMPH,PrecipitationIn,Events,Conditions,WindDirDegrees,DateUTC
12:53 AM,66.9,63.0,87,30.19,10.0,Calm,Calm,-,N/A,,Mostly Cloudy,0,2013-08-18 04:53:00
1:53 AM,66.9,63.0,87,30.19,10.0,NNE,4.6,-,N/A,,Clear,30,2013-08-18 05:53:00
2:53 AM,66.9,63.0,87,30.19,10.0,ENE,4.6,-,N/A,,Clear,70,2013-08-18 06:53:00
3:53 AM,62.1,59.0,90,30.18,3.0,Calm,Calm,-,N/A,,Clear,0,2013-08-18 07:53:00
4:00 AM,62.6,59.0,88,30.19,2.5,Calm,Calm,-,N/A,,Clear,0,2013-08-18 08:00:00
4:13 AM,62.6,60.8,94,30.18,1.0,Calm,Calm,-,N/A,,Clear,0,2013-08-18 08:13:00
4:20 AM,62.6,60.8,94,30.18,0.2,Calm,Calm,-,N/A,Fog,Fog,0,2013-08-18 08:20:00
4:51 AM,60.8,57.2,88,30.19,0.2,Calm,Calm,-,N/A,Fog,Fog,0,2013-08-18 08:51:00
4:53 AM,59.0,57.9,96,30.18,0.2,Calm,Calm,-,N/A,Fog,Fog,0,2013-08-18 08:53:00
5:08 AM,60.8,57.2,88,30.18,1.5,Calm,Calm,-,N/A,,Partly Cloudy,0,2013-08-18 09:08:00
5:10 AM,59.0,57.2,94,30.18,3.0,Calm,Calm,-,N/A,,Partly Cloudy,0,2013-08-18 09:10:00
5:14 AM,59.0,57.2,94,30.18,1.0,East,3.5,-,N/A,,Mist,100,2013-08-18 09:14:00
5:21 AM,59.0,57.2,94,30.18,0.2,East,3.5,-,N/A,Fog,Fog,100,2013-08-18 09:21:00
5:41 AM,57.2,57.2,100,30.19,1.2,Calm,Calm,-,N/A,,Partly Cloudy,0,2013-08-18 09:41:00
5:46 AM,57.2,55.4,94,30.19,3.0,Calm,Calm,-,N/A,,Partly Cloudy,0,2013-08-18 09:46:00
5:53 AM,57.9,55.9,93,30.19,9.0,Calm,Calm,-,N/A,,Partly Cloudy,0,2013-08-18 09:53:00
6:05 AM,57.2,55.4,94,30.19,1.0,Calm,Calm,-,N/A,,Mist,0,2013-08-18 10:05:00
6:12 AM,59.0,57.2,94,30.20,0.5,Calm,Calm,-,N/A,Fog,Fog,0,2013-08-18 10:12:00
6:16 AM,59.0,57.2,94,30.19,1.0,Calm,Calm,-,N/A,,Clear,0,2013-08-18 10:16:00
6:19 AM,59.0,57.2,94,30.19,2.5,Calm,Calm,-,N/A,,Clear,0,2013-08-18 10:19:00
6:26 AM,57.2,55.4,94,30.20,7.0,Calm,Calm,-,N/A,,Clear,0,2013-08-18 10:26:00
6:53 AM,57.9,55.0,90,30.20,10.0,Calm,Calm,-,N/A,,Clear,0,2013-08-18 10:53:00
7:10 AM,57.2,55.4,94,30.21,1.2,North,3.5,-,N/A,,Partly Cloudy,350,2013-08-18 11:10:00
7:17 AM,57.2,55.4,94,30.21,0.2,Calm,Calm,-,N/A,Fog,Fog,0,2013-08-18 11:17:00
7:29 AM,57.2,55.4,94,30.21,3.0,Calm,Calm,-,N/A,,Partly Cloudy,0,2013-08-18 11:29:00
7:53 AM,61.0,57.9,90,30.21,6.0,Calm,Calm,-,N/A,,Clear,0,2013-08-18 11:53:00
8:16 AM,62.6,60.8,94,30.22,2.5,Calm,Calm,-,N/A,,Clear,0,2013-08-18 12:16:00
8:23 AM,64.4,60.8,88,30.22,4.0,Calm,Calm,-,N/A,,Clear,0,2013-08-18 12:23:00
8:53 AM,66.0,60.1,81,30.22,8.0,Calm,Calm,-,N/A,,Clear,0,2013-08-18 12:53:00
9:53 AM,72.0,60.1,66,30.22,10.0,Calm,Calm,-,N/A,,Clear,0,2013-08-18 13:53:00
10:53 AM,73.9,62.1,66,30.22,10.0,East,4.6,-,N/A,,Clear,100,2013-08-18 14:53:00
11:53 AM,78.1,57.9,50,30.20,10.0,NNE,3.5,-,N/A,,Clear,30,2013-08-18 15:53:00
12:53 PM,78.1,55.0,45,30.19,10.0,East,8.1,-,N/A,,Partly Cloudy,80,2013-08-18 16:53:00
1:53 PM,80.1,55.0,42,30.18,10.0,Calm,Calm,-,N/A,,Clear,0,2013-08-18 17:53:00
2:53 PM,80.1,54.0,40,30.17,10.0,ENE,8.1,-,N/A,,Partly Cloudy,60,2013-08-18 18:53:00
3:53 PM,79.0,51.1,38,30.16,10.0,NE,6.9,-,N/A,,Clear,40,2013-08-18 19:53:00
4:53 PM,80.1,51.1,36,30.14,10.0,NE,4.6,-,N/A,,Clear,50,2013-08-18 20:53:00
5:53 PM,78.1,55.0,45,30.14,10.0,ENE,4.6,-,N/A,,Clear,70,2013-08-18 21:53:00
6:53 PM,77.0,55.9,48,30.13,10.0,East,3.5,-,N/A,,Clear,80,2013-08-18 22:53:00
7:53 PM,73.9,55.9,53,30.13,10.0,Calm,Calm,-,N/A,,Clear,0,2013-08-18 23:53:00
8:53 PM,70.0,55.9,61,30.14,10.0,Calm,Calm,-,N/A,,Clear,0,2013-08-19 00:53:00
9:53 PM,66.9,55.9,68,30.14,10.0,Calm,Calm,-,N/A,,Clear,0,2013-08-19 01:53:00
10:53 PM,66.0,55.9,70,30.14,10.0,Calm,Calm,-,N/A,,Clear,0,2013-08-19 02:53:00
11:53 PM,64.0,55.9,75,30.14,10.0,SE,3.5,-,N/A,,Clear,140,2013-08-19 03:53:00